Regional Weather Roundup
Issued by NWS Boston, MA

Current Version | Previous Version | Text Only | Print | Product List | Glossary Off
Versions: 1 2 3 4 5 6 7 8 9 10 11 12 13 14 15 16 17 18 19 20 21 22 23 24 25 26 27

000
ASUS41 KBOX 202310
RWRBOX

REGIONAL WEATHER ROUNDUP
NATIONAL WEATHER SERVICE TAUNTON MA
700 PM EDT FRI OCT 20 2017

NOTE:  "FAIR" INDICATES FEW OR NO CLOUDS BELOW 12,000 FEET WITH NO
SIGNIFICANT WEATHER AND/OR OBSTRUCTIONS TO VISIBILITY.

MAZALL-210000-
EASTERN MASSACHUSETTS

CITY           SKY/WX    TMP DP  RH WIND       PRES   REMARKS
BOSTON         PTCLDY    66  34  30 W9        30.05R
BEVERLY        CLEAR     63  36  36 W6        30.04R
LAWRENCE       CLEAR     63  37  38 CALM      30.07R
BEDFORD        CLEAR     61  32  33 W7        30.05R
BLUE HILL        N/A     62  33  33 NW12G21   30.05R
NORWOOD        CLEAR     63  36  36 NW3       30.06R
MARSHFIELD     CLEAR     59  43  55 W5        30.04R
PLYMOUTH       CLEAR     61  38  42 W5        30.06R
TAUNTON        CLEAR     57  40  52 CALM      30.05R
NEW BEDFORD    CLEAR     57  43  59 W3        30.05R
$$

MAZALL-210000-
CAPE COD AND THE ISLANDS

CITY           SKY/WX    TMP DP  RH WIND       PRES   REMARKS
FALMOUTH       CLEAR     57  45  62 W5        30.06R
HYANNIS        CLEAR     54  48  80 W5        30.03R
CHATHAM        CLEAR     56  49  77 CALM      30.04R
PROVINCETOWN   CLEAR     59  50  72 W3        30.04R
NANTUCKET      CLEAR     57  54  89 W6        30.04R
MARTHAS VNYRD  CLEAR     57  46  66 W6        30.05R
$$

MAZALL-210000-
CENTRAL AND WESTERN MASSACHUSETTS

CITY           SKY/WX    TMP DP  RH WIND       PRES   REMARKS
WORCESTER      CLEAR     59  33  37 W8        30.10R
FITCHBURG      CLEAR     64  37  36 NW6       30.08R
ORANGE         CLEAR     53  41  63 CALM      30.10R
SPRINGFIELD    PTCLDY    61  38  42 NW7       30.09R
WESTFIELD      CLEAR     59  39  47 NW6       30.10R
NORTH ADAMS    CLEAR     50  41  71 CALM      30.12R
PITTSFIELD     CLEAR     58  34  40 W6        30.13R
$$

RIZALL-210000-
RHODE ISLAND

CITY           SKY/WX    TMP DP  RH WIND       PRES   REMARKS
PROVIDENCE     CLEAR     64  40  41 NW9       30.08R
NEWPORT        CLEAR     63  45  51 W7        30.07R
BLOCK ISLAND   CLEAR     64  43  46 NW7       30.09R
SMITHFIELD     CLEAR     60  37  42 NW7       30.08R
WESTERLY       CLEAR     64  39  39 CALM      30.09R
$$

CTZALL-210000-
CONNECTICUT

CITY           SKY/WX    TMP DP  RH WIND       PRES   REMARKS
BRADLEY INTL   PTCLDY    59  40  49 NW8       30.11R
HARTFORD       CLEAR     66  40  38 W6        30.10R
BRIDGEPORT     CLEAR     67  35  30 N5        30.12R
DANBURY        CLEAR     59  40  49 SW3       30.15R
GROTON         CLEAR     60  44  55 CALM      30.09R
NEW HAVEN      PTCLDY    67  38  34 NW6       30.12R
CHESTER        FAIR      61  41  48 NW5       30.11R
MERIDEN        CLEAR     62  40  44 NW7       30.12R
WILLIMANTIC    CLEAR     60  38  43 N3        30.10R
OXFORD         CLEAR     61  38  42 NW8       30.14R
$$

MEZ002-015-021-024-NHZ003-005-008-011-012-014-VTZ005-008-210000-
NORTHERN NEW ENGLAND

CITY           SKY/WX    TMP DP  RH WIND       PRES   REMARKS
PORTLAND ME    PTCLDY    60  37  42 CALM      30.02R
BANGOR ME      CLEAR     59  35  40 NW13G20   29.98R
CONCORD NH     CLEAR     63  33  32 VRB3      30.07R
MANCHESTER NH  CLEAR     64  33  31 W6        30.05R
NASHUA NH      CLEAR     64  36  35 W8        30.07R
PORTSMOUTH NH  CLEAR     63  33  33 W10       30.02R
JAFFREY NH     CLEAR     63  33  32 VRB6G17   30.10R
KEENE NH       CLEAR     58  37  45 CALM      30.11R
BURLINGTON VT  PTCLDY    59  36  42 SE3       30.11R
MT. WASHINGTON PTCLDY    34  25  69 NW70G78     N/A  WCI  15
$$

NYZ052-076-210000-
EASTERN NEW YORK

CITY           SKY/WX    TMP DP  RH WIND       PRES   REMARKS
ALBANY         PTCLDY    60  34  37 W10       30.14R
NEW YORK CITY  PTCLDY    71  39  31 NW9       30.13R
$$

ANZALL-210000-
MARINE OBSERVATIONS

STATION/POSITION TIME  TEMP    WIND        PRES    VSBY  WAVE
                       AIR SEA DIR/SP/G                  HT/PER
                 (UTC) (F)     (DEG/KT/KT) (MB)    (MI)  (FT/S)
BOSTON BUOY      2250   63 59  290/  8/ 10 1016.7R         1/ 3
BUZZARDS BAY     2200   67     300/ 12/ 13 1017.8R
NANTUCKET SOUND  2250   63 62  270/  8/ 10 1017.1R         1
MASS BAY-STELLWA 2204   65 59  300/ 10/ 12 1015.5R         1/ 3
ISLE OF SHOALS   2200   65     280/ 15/ 16 1015.5R
S OF BLOCK IS    NOT AVBL
$$

......................KEY.........................
  SKY/WX - SKY CONDITION/PRESENT WEATHER
  TMP    - TEMPERATURE IN FAHRENHEIT
  DWPT   - DEWPOINT IN FAHRENHEIT
  RH     - RELATIVE HUMIDITY IN PERCENT
  WIND   - DIRECTION AND SPEED IN MPH
  PRES   - MEAN SEA LEVEL PRESSURE IN INCHES OF HG
  WCI    - WIND CHILL INDEX
  VSB    - VISIBILITY IN MILES
  HX     - HEAT INDEX
  TC     - TEMPERATURE IN CELSIUS
  VRB    - VARIABLE WIND DIRECTION
  N/A    - NOT AVAILABLE




USA.gov is the U.S. government's official web portal to all federal, state and local government web resources and services.